| time (UTC) | temp F | wind direction | speed MPH | gust MPH | rain 1hr in | rain 24hr in | rain mn in | humidity % | barometer mb |
| 20260906220550 | 85 | 0 | 2.0 | 9.0 | 0.00 | 0.00 | 0.00 | 31 | 1018.6 |
| 20260906220106 | 86 | 244 | 1.0 | 9.0 | 0.00 | 0.00 | 0.00 | 31 | 1018.6 |
| 20260906215550 | 86 | 0 | 0.0 | 7.0 | 0.00 | 0.00 | 0.00 | 31 | 1018.6 |
| 20260906215050 | 86 | 244 | 1.0 | 7.0 | 0.00 | 0.00 | 0.00 | 31 | 1018.8 |
| 20260906214557 | 86 | 0 | 1.0 | 8.0 | 0.00 | 0.00 | 0.00 | 31 | 1018.8 |
| 20260906214050 | 85 | 0 | 2.0 | 8.0 | 0.00 | 0.00 | 0.00 | 31 | 1018.9 |
| 20260906213550 | 85 | 244 | 2.0 | 7.0 | 0.00 | 0.00 | 0.00 | 32 | 1019.0 |
| 20260906213054 | 84 | 244 | 1.0 | 8.0 | 0.00 | 0.00 | 0.00 | 31 | 1018.9 |
| 20260906212546 | 84 | 244 | 3.0 | 9.0 | 0.00 | 0.00 | 0.00 | 30 | 1019.0 |
| 20260906212051 | 84 | 0 | 3.0 | 12.0 | 0.00 | 0.00 | 0.00 | 28 | 1019.1 |
| 20260906211607 | 84 | 244 | 3.0 | 12.0 | 0.00 | 0.00 | 0.00 | 29 | 1019.2 |
| 20260906211053 | 84 | 244 | 6.0 | 14.0 | 0.00 | 0.00 | 0.00 | 29 | 1019.2 |
| 20260906210549 | 85 | 244 | 5.0 | 14.0 | 0.00 | 0.00 | 0.00 | 30 | 1019.2 |
| 20260906210059 | 85 | 245 | 5.0 | 14.0 | 0.00 | 0.00 | 0.00 | 29 | 1019.3 |
| 20260906205547 | 85 | 246 | 4.0 | 15.0 | 0.00 | 0.00 | 0.00 | 30 | 1019.3 |
| 20260906205051 | 86 | 250 | 5.0 | 15.0 | 0.00 | 0.00 | 0.00 | 30 | 1019.3 |
| 20260906204610 | 86 | 254 | 6.0 | 12.0 | 0.00 | 0.00 | 0.00 | 31 | 1019.3 |
| 20260906204050 | 87 | 259 | 4.0 | 10.0 | 0.00 | 0.00 | 0.00 | 30 | 1019.5 |
| 20260906203551 | 87 | 260 | 4.0 | 11.0 | 0.00 | 0.00 | 0.00 | 31 | 1019.4 |
| 20260906203103 | 87 | 261 | 5.0 | 11.0 | 0.00 | 0.00 | 0.00 | 31 | 1019.4 |
| 20260906202550 | 87 | 0 | 4.0 | 9.0 | 0.00 | 0.00 | 0.00 | 30 | 1019.5 |
| 20260906202052 | 87 | 262 | 3.0 | 8.0 | 0.00 | 0.00 | 0.00 | 30 | 1019.4 |
| 20260906201613 | 87 | 262 | 2.0 | 9.0 | 0.00 | 0.00 | 0.00 | 30 | 1019.4 |
| 20260906201050 | 87 | 262 | 2.0 | 11.0 | 0.00 | 0.00 | 0.00 | 31 | 1019.5 |
| 20260906200550 | 86 | 269 | 2.0 | 11.0 | 0.00 | 0.00 | 0.00 | 29 | 1019.6 |
| 20260906200101 | 86 | 273 | 4.0 | 10.0 | 0.00 | 0.00 | 0.00 | 28 | 1019.8 |
| 20260906195547 | 86 | 275 | 3.0 | 10.0 | 0.00 | 0.00 | 0.00 | 30 | 1019.6 |
| 20260906195053 | 86 | 275 | 4.0 | 10.0 | 0.00 | 0.00 | 0.00 | 31 | 1019.8 |
| 20260906194606 | 86 | 275 | 4.0 | 10.0 | 0.00 | 0.00 | 0.00 | 30 | 1019.7 |
| 20260906194050 | 86 | 0 | 4.0 | 10.0 | 0.00 | 0.00 | 0.00 | 32 | 1019.8 |
| 20260906193550 | 86 | 279 | 3.0 | 10.0 | 0.00 | 0.00 | 0.00 | 32 | 1019.8 |
| 20260906193101 | 86 | 0 | 1.0 | 10.0 | 0.00 | 0.00 | 0.00 | 33 | 1019.8 |
| 20260906192550 | 85 | 284 | 3.0 | 10.0 | 0.00 | 0.00 | 0.00 | 30 | 1020.0 |
| 20260906192050 | 85 | 0 | 4.0 | 9.0 | 0.00 | 0.00 | 0.00 | 33 | 1020.1 |
| 20260906191602 | 85 | 285 | 1.0 | 7.0 | 0.00 | 0.00 | 0.00 | 34 | 1020.2 |
| 20260906191049 | 84 | 0 | 0.0 | 9.0 | 0.00 | 0.00 | 0.00 | 35 | 1020.3 |
| 20260906190548 | 84 | 286 | 3.0 | 10.0 | 0.00 | 0.00 | 0.00 | 35 | 1020.2 |
| 20260906190113 | 84 | 286 | 3.0 | 10.0 | 0.00 | 0.00 | 0.00 | 36 | 1020.4 |
| 20260906185556 | 84 | 288 | 3.0 | 9.0 | 0.00 | 0.00 | 0.00 | 36 | 1020.5 |
| 20260906185051 | 84 | 0 | 2.0 | 8.0 | 0.00 | 0.00 | 0.00 | 36 | 1020.6 |
| 20260906184600 | 84 | 291 | 3.0 | 8.0 | 0.00 | 0.00 | 0.00 | 36 | 1020.5 |
| 20260906184049 | 84 | 292 | 1.0 | 8.0 | 0.00 | 0.00 | 0.00 | 37 | 1020.7 |
| 20260906183550 | 83 | 292 | 1.0 | 8.0 | 0.00 | 0.00 | 0.00 | 39 | 1020.8 |
| 20260906183111 | 83 | 294 | 0.0 | 8.0 | 0.00 | 0.00 | 0.00 | 39 | 1020.9 |
| 20260906182550 | 83 | 0 | 1.0 | 8.0 | 0.00 | 0.00 | 0.00 | 38 | 1021.0 |
| 20260906182050 | 83 | 294 | 2.0 | 8.0 | 0.00 | 0.00 | 0.00 | 38 | 1021.1 |
| 20260906181602 | 82 | 296 | 4.0 | 8.0 | 0.00 | 0.00 | 0.00 | 40 | 1021.1 |
| 20260906181053 | 82 | 0 | 1.0 | 9.0 | 0.00 | 0.00 | 0.00 | 41 | 1021.2 |
| 20260906180550 | 81 | 296 | 4.0 | 9.0 | 0.00 | 0.00 | 0.00 | 40 | 1021.4 |
| 20260906180119 | 81 | 296 | 3.0 | 8.0 | 0.00 | 0.00 | 0.00 | 40 | 1021.5 |
| 20260906175550 | 81 | 0 | 3.0 | 9.0 | 0.00 | 0.00 | 0.00 | 41 | 1021.5 |
| 20260906175049 | 81 | 301 | 2.0 | 9.0 | 0.00 | 0.00 | 0.00 | 41 | 1021.8 |
| 20260906174602 | 81 | 304 | 0.0 | 9.0 | 0.00 | 0.00 | 0.00 | 41 | 1021.8 |
| 20260906174050 | 81 | 304 | 1.0 | 10.0 | 0.00 | 0.00 | 0.00 | 40 | 1021.8 |
| 20260906173554 | 81 | 304 | 1.0 | 10.0 | 0.00 | 0.00 | 0.00 | 40 | 1021.9 |
| 20260906173116 | 81 | 0 | 1.0 | 10.0 | 0.00 | 0.00 | 0.00 | 40 | 1021.9 |
| 20260906172550 | 81 | 312 | 2.0 | 10.0 | 0.00 | 0.00 | 0.00 | 40 | 1021.8 |
| 20260906172050 | 80 | 0 | 1.0 | 10.0 | 0.00 | 0.00 | 0.00 | 42 | 1021.9 |
| 20260906171600 | 80 | 315 | 2.0 | 9.0 | 0.00 | 0.00 | 0.00 | 41 | 1021.9 |
| 20260906171050 | 79 | 315 | 3.0 | 9.0 | 0.00 | 0.00 | 0.00 | 41 | 1021.9 |
| 20260906170550 | 79 | 318 | 3.0 | 9.0 | 0.00 | 0.00 | 0.00 | 40 | 1021.9 |
| 20260906170121 | 79 | 0 | 3.0 | 8.0 | 0.00 | 0.00 | 0.00 | 41 | 1022.0 |
| 20260906165550 | 78 | 0 | 2.0 | 8.0 | 0.00 | 0.00 | 0.00 | 44 | 1022.0 |
| 20260906165051 | 77 | 0 | 2.0 | 6.0 | 0.00 | 0.00 | 0.00 | 45 | 1022.1 |
| 20260906164603 | 77 | 0 | 1.0 | 6.0 | 0.00 | 0.00 | 0.00 | 45 | 1022.2 |
| 20260906164050 | 77 | 0 | 2.0 | 6.0 | 0.00 | 0.00 | 0.00 | 45 | 1022.3 |
| 20260906163550 | 77 | 0 | 3.0 | 8.0 | 0.00 | 0.00 | 0.00 | 46 | 1022.3 |
| 20260906163104 | 77 | 336 | 3.0 | 8.0 | 0.00 | 0.00 | 0.00 | 47 | 1022.3 |
| 20260906162551 | 77 | 340 | 3.0 | 6.0 | 0.00 | 0.00 | 0.00 | 48 | 1022.3 |
| 20260906162050 | 76 | 0 | 1.0 | 6.0 | 0.00 | 0.00 | 0.00 | 48 | 1022.3 |
| 20260906161556 | 76 | 343 | 3.0 | 6.0 | 0.00 | 0.00 | 0.00 | 48 | 1022.3 |
| 20260906161050 | 76 | 0 | 1.0 | 5.0 | 0.00 | 0.00 | 0.00 | 47 | 1022.2 |
| 20260906160550 | 76 | 344 | 2.0 | 5.0 | 0.00 | 0.00 | 0.00 | 47 | 1022.2 |
| 20260906160058 | 76 | 344 | 2.0 | 8.0 | 0.00 | 0.00 | 0.00 | 47 | 1022.3 |
| 20260906155550 | 75 | 344 | 1.0 | 8.0 | 0.00 | 0.00 | 0.00 | 48 | 1022.2 |
| 20260906155045 | 75 | 346 | 1.0 | 8.0 | 0.00 | 0.00 | 0.00 | 48 | 1022.2 |
| 20260906154553 | 74 | 345 | 3.0 | 6.0 | 0.00 | 0.00 | 0.00 | 49 | 1022.1 |
| 20260906154047 | 73 | 345 | 3.0 | 6.0 | 0.00 | 0.00 | 0.00 | 48 | 1022.2 |
| 20260906153545 | 72 | 345 | 0.0 | 6.0 | 0.00 | 0.00 | 0.00 | 47 | 1022.3 |
| 20260906153057 | 72 | 345 | 1.0 | 4.0 | 0.00 | 0.00 | 0.00 | 47 | 1022.2 |
| 20260906152546 | 71 | 0 | 0.0 | 4.0 | 0.00 | 0.00 | 0.00 | 48 | 1022.3 |
| 20260906152046 | 71 | 345 | 0.0 | 0.0 | 0.00 | 0.00 | 0.00 | 48 | 1022.3 |
| 20260906151608 | 70 | 0 | 0.0 | 5.0 | 0.00 | 0.00 | 0.00 | 49 | 1022.5 |
| 20260906151049 | 70 | 0 | 0.0 | 5.0 | 0.00 | 0.00 | 0.00 | 50 | 1022.5 |
| 20260906150546 | 70 | 345 | 1.0 | 3.0 | 0.00 | 0.00 | 0.00 | 52 | 1022.5 |
| 20260906150105 | 70 | 0 | 0.0 | 3.0 | 0.00 | 0.00 | 0.00 | 54 | 1022.3 |
| 20260906145548 | 69 | 345 | 0.0 | 4.0 | 0.00 | 0.00 | 0.00 | 54 | 1022.4 |
| 20260906145050 | 69 | 345 | 1.0 | 4.0 | 0.00 | 0.00 | 0.00 | 55 | 1022.4 |
| 20260906144600 | 68 | 345 | 0.0 | 3.0 | 0.00 | 0.00 | 0.00 | 57 | 1022.3 |
| 20260906144047 | 68 | 0 | 0.0 | 0.0 | 0.00 | 0.00 | 0.00 | 56 | 1022.3 |
| 20260906143548 | 68 | 0 | 0.0 | 0.0 | 0.00 | 0.00 | 0.00 | 54 | 1022.3 |
| 20260906143128 | 68 | 0 | 0.0 | 0.0 | 0.00 | 0.00 | 0.00 | 54 | 1022.2 |
| 20260906142549 | 68 | 0 | 0.0 | 3.0 | 0.00 | 0.00 | 0.00 | 55 | 1022.2 |
| 20260906142046 | 67 | 0 | 0.0 | 3.0 | 0.00 | 0.00 | 0.00 | 56 | 1022.1 |
| 20260906141555 | 67 | 345 | 0.0 | 0.0 | 0.00 | 0.00 | 0.00 | 58 | 1022.1 |
| 20260906141046 | 67 | 0 | 0.0 | 2.0 | 0.00 | 0.00 | 0.00 | 58 | 1022.2 |
| 20260906140547 | 67 | 0 | 0.0 | 2.0 | 0.00 | 0.00 | 0.00 | 59 | 1022.3 |
| 20260906140100 | 66 | 0 | 0.0 | 0.0 | 0.00 | 0.00 | 0.00 | 61 | 1022.3 |
| 20260906135547 | 66 | 0 | 0.0 | 0.0 | 0.00 | 0.00 | 0.00 | 61 | 1022.3 |
| 20260906135049 | 65 | 0 | 0.0 | 2.0 | 0.00 | 0.00 | 0.00 | 62 | 1022.3 |
| 20260906134603 | 65 | 0 | 0.0 | 2.0 | 0.00 | 0.00 | 0.00 | 63 | 1022.3 |
| 20260906134047 | 64 | 0 | 0.0 | 0.0 | 0.00 | 0.00 | 0.00 | 65 | 1022.3 |
| 20260906133549 | 64 | 0 | 0.0 | 0.0 | 0.00 | 0.00 | 0.00 | 65 | 1022.3 |
| 20260906133058 | 64 | 0 | 0.0 | 0.0 | 0.00 | 0.00 | 0.00 | 66 | 1022.3 |
| 20260906132547 | 64 | 0 | 0.0 | 0.0 | 0.00 | 0.00 | 0.00 | 66 | 1022.3 |
| 20260906132045 | 63 | 0 | 0.0 | 0.0 | 0.00 | 0.00 | 0.00 | 66 | 1022.3 |
| 20260906131603 | 63 | 0 | 0.0 | 0.0 | 0.00 | 0.00 | 0.00 | 66 | 1022.3 |
| 20260906131046 | 63 | 0 | 0.0 | 0.0 | 0.00 | 0.00 | 0.00 | 65 | 1022.1 |
| 20260906130546 | 63 | 0 | 0.0 | 0.0 | 0.00 | 0.00 | 0.00 | 62 | 1022.0 |
| 20260906130057 | 63 | 0 | 0.0 | 2.0 | 0.00 | 0.00 | 0.00 | 62 | 1022.1 |
| 20260906125546 | 62 | 0 | 0.0 | 2.0 | 0.00 | 0.00 | 0.00 | 63 | 1022.0 |
| 20260906125049 | 63 | 345 | 0.0 | 0.0 | 0.00 | 0.00 | 0.00 | 63 | 1022.0 |
| 20260906124600 | 63 | 0 | 0.0 | 0.0 | 0.00 | 0.00 | 0.00 | 64 | 1021.8 |
| 20260906124050 | 63 | 0 | 0.0 | 0.0 | 0.00 | 0.00 | 0.00 | 64 | 1021.9 |
| 20260906123550 | 63 | 0 | 0.0 | 0.0 | 0.00 | 0.00 | 0.00 | 63 | 1021.7 |
| 20260906123135 | 63 | 0 | 0.0 | 0.0 | 0.00 | 0.00 | 0.00 | 63 | 1021.8 |
| 20260906122550 | 62 | 0 | 0.0 | 0.0 | 0.00 | 0.00 | 0.00 | 63 | 1021.7 |
| 20260906122050 | 62 | 0 | 0.0 | 0.0 | 0.00 | 0.00 | 0.00 | 62 | 1021.6 |
| 20260906121604 | 62 | 0 | 0.0 | 0.0 | 0.00 | 0.00 | 0.00 | 63 | 1021.7 |
| 20260906121050 | 63 | 0 | 0.0 | 0.0 | 0.00 | 0.00 | 0.00 | 66 | 1021.6 |
| 20260906120547 | 63 | 0 | 0.0 | 0.0 | 0.00 | 0.00 | 0.00 | 68 | 1021.7 |
| 20260906120059 | 63 | 0 | 0.0 | 0.0 | 0.00 | 0.00 | 0.00 | 67 | 1021.7 |
| 20260906115550 | 63 | 0 | 0.0 | 0.0 | 0.00 | 0.00 | 0.00 | 68 | 1021.7 |
| 20260906115050 | 63 | 0 | 0.0 | 0.0 | 0.00 | 0.00 | 0.00 | 69 | 1021.6 |
| 20260906114610 | 63 | 0 | 0.0 | 0.0 | 0.00 | 0.00 | 0.00 | 68 | 1021.7 |
| 20260906114049 | 63 | 0 | 0.0 | 0.0 | 0.00 | 0.00 | 0.00 | 71 | 1021.7 |
| 20260906113550 | 63 | 0 | 0.0 | 0.0 | 0.00 | 0.00 | 0.00 | 70 | 1021.8 |
| 20260906113104 | 63 | 0 | 0.0 | 0.0 | 0.00 | 0.00 | 0.00 | 69 | 1021.7 |
| 20260906112550 | 63 | 0 | 0.0 | 0.0 | 0.00 | 0.00 | 0.00 | 70 | 1021.7 |
| 20260906112049 | 64 | 0 | 0.0 | 0.0 | 0.00 | 0.00 | 0.00 | 70 | 1021.5 |
| 20260906111559 | 64 | 0 | 0.0 | 0.0 | 0.00 | 0.00 | 0.00 | 69 | 1021.5 |
| 20260906111050 | 64 | 0 | 0.0 | 0.0 | 0.00 | 0.00 | 0.00 | 69 | 1021.7 |
| 20260906110550 | 64 | 0 | 0.0 | 0.0 | 0.00 | 0.00 | 0.00 | 68 | 1021.6 |
| 20260906110105 | 64 | 0 | 0.0 | 0.0 | 0.00 | 0.00 | 0.00 | 67 | 1021.7 |
| 20260906105550 | 65 | 0 | 0.0 | 0.0 | 0.00 | 0.00 | 0.00 | 66 | 1021.8 |
| 20260906105049 | 65 | 0 | 0.0 | 0.0 | 0.00 | 0.00 | 0.00 | 66 | 1021.7 |
| 20260906104556 | 65 | 0 | 0.0 | 0.0 | 0.00 | 0.00 | 0.00 | 66 | 1021.8 |
| 20260906104049 | 65 | 0 | 0.0 | 0.0 | 0.00 | 0.00 | 0.00 | 66 | 1021.8 |
| 20260906103550 | 66 | 0 | 0.0 | 0.0 | 0.00 | 0.00 | 0.00 | 65 | 1021.9 |
| 20260906103106 | 66 | 0 | 0.0 | 0.0 | 0.00 | 0.00 | 0.00 | 64 | 1021.8 |
| 20260906102551 | 66 | 0 | 0.0 | 5.0 | 0.00 | 0.00 | 0.00 | 63 | 1021.8 |
| 20260906102051 | 66 | 0 | 0.0 | 5.0 | 0.00 | 0.00 | 0.00 | 63 | 1021.8 |
| 20260906101604 | 66 | 0 | 0.0 | 2.0 | 0.00 | 0.00 | 0.00 | 60 | 1021.8 |
| 20260906101050 | 66 | 0 | 0.0 | 2.0 | 0.00 | 0.00 | 0.00 | 57 | 1021.8 |
| 20260906100553 | 66 | 0 | 0.0 | 0.0 | 0.00 | 0.00 | 0.00 | 54 | 1021.9 |
| 20260906100059 | 66 | 0 | 0.0 | 0.0 | 0.00 | 0.00 | 0.00 | 48 | 1021.8 |
| 20260906095550 | 67 | 0 | 0.0 | 0.0 | 0.00 | 0.00 | 0.00 | 47 | 1021.6 |
| 20260906095050 | 67 | 0 | 0.0 | 0.0 | 0.00 | 0.00 | 0.00 | 46 | 1021.5 |
| 20260906094608 | 67 | 0 | 0.0 | 0.0 | 0.00 | 0.00 | 0.00 | 46 | 1021.4 |
| 20260906094050 | 67 | 0 | 0.0 | 0.0 | 0.00 | 0.00 | 0.00 | 45 | 1021.4 |
| 20260906093550 | 68 | 0 | 0.0 | 0.0 | 0.00 | 0.00 | 0.00 | 45 | 1021.4 |
| 20260906093100 | 68 | 0 | 0.0 | 0.0 | 0.00 | 0.00 | 0.00 | 44 | 1021.4 |
| 20260906092550 | 68 | 0 | 0.0 | 0.0 | 0.00 | 0.00 | 0.00 | 44 | 1021.3 |
| 20260906092050 | 68 | 0 | 0.0 | 0.0 | 0.00 | 0.00 | 0.00 | 43 | 1021.2 |
| 20260906091605 | 69 | 0 | 0.0 | 0.0 | 0.00 | 0.00 | 0.00 | 42 | 1021.2 |
| 20260906091053 | 69 | 0 | 0.0 | 0.0 | 0.00 | 0.00 | 0.00 | 42 | 1021.2 |
| 20260906090550 | 70 | 0 | 0.0 | 0.0 | 0.00 | 0.00 | 0.00 | 42 | 1021.1 |
| 20260906085550 | 70 | 0 | 0.0 | 0.0 | 0.00 | 0.00 | 0.00 | 41 | 1021.1 |
| 20260906085049 | 70 | 0 | 0.0 | 0.0 | 0.00 | 0.00 | 0.00 | 41 | 1021.1 |
| 20260906084605 | 70 | 0 | 0.0 | 2.0 | 0.00 | 0.00 | 0.00 | 40 | 1021.0 |
| 20260906084050 | 70 | 0 | 0.0 | 4.0 | 0.00 | 0.00 | 0.00 | 40 | 1021.0 |
| 20260906083552 | 70 | 0 | 0.0 | 4.0 | 0.00 | 0.00 | 0.00 | 40 | 1021.1 |
| 20260906083104 | 71 | 0 | 0.0 | 0.0 | 0.00 | 0.00 | 0.00 | 41 | 1021.1 |
| 20260906082547 | 71 | 0 | 0.0 | 0.0 | 0.00 | 0.00 | 0.00 | 41 | 1021.1 |
| 20260906082052 | 71 | 0 | 0.0 | 0.0 | 0.00 | 0.00 | 0.00 | 40 | 1021.2 |
| 20260906081559 | 71 | 0 | 0.0 | 0.0 | 0.00 | 0.00 | 0.00 | 40 | 1021.4 |
| 20260906081050 | 71 | 0 | 0.0 | 0.0 | 0.00 | 0.00 | 0.00 | 40 | 1021.3 |
| 20260906080549 | 71 | 0 | 0.0 | 0.0 | 0.00 | 0.00 | 0.00 | 40 | 1021.3 |
| 20260906075550 | 71 | 0 | 0.0 | 0.0 | 0.00 | 0.00 | 0.00 | 40 | 1021.4 |
| 20260906075050 | 71 | 0 | 0.0 | 0.0 | 0.00 | 0.00 | 0.00 | 40 | 1021.4 |
| 20260906074604 | 71 | 0 | 0.0 | 0.0 | 0.00 | 0.00 | 0.00 | 40 | 1021.5 |
| 20260906074051 | 71 | 0 | 0.0 | 0.0 | 0.00 | 0.00 | 0.00 | 40 | 1021.5 |
| 20260906073550 | 71 | 0 | 0.0 | 0.0 | 0.00 | 0.00 | 0.00 | 40 | 1021.5 |
| 20260906073100 | 71 | 0 | 0.0 | 0.0 | 0.00 | 0.00 | 0.00 | 40 | 1021.4 |
| 20260906072550 | 71 | 0 | 0.0 | 0.0 | 0.00 | 0.00 | 0.00 | 40 | 1021.5 |
| 20260906072050 | 71 | 0 | 0.0 | 0.0 | 0.00 | 0.00 | 0.00 | 41 | 1021.5 |
| 20260906071555 | 71 | 0 | 0.0 | 0.0 | 0.00 | 0.00 | 0.00 | 41 | 1021.5 |
| 20260906071050 | 71 | 0 | 0.0 | 0.0 | 0.00 | 0.00 | 0.00 | 41 | 1021.4 |
| 20260906070551 | 71 | 0 | 0.0 | 0.0 | 0.00 | 0.00 | 0.00 | 41 | 1021.3 |
| 20260906070104 | 71 | 0 | 0.0 | 0.0 | 0.00 | 0.00 | 0.00 | 41 | 1021.2 |
| 20260906065550 | 71 | 0 | 0.0 | 0.0 | 0.00 | 0.00 | 0.00 | 41 | 1021.3 |
| 20260906065053 | 71 | 0 | 0.0 | 0.0 | 0.00 | 0.00 | 0.00 | 41 | 1021.4 |
| 20260906064557 | 71 | 0 | 0.0 | 0.0 | 0.00 | 0.00 | 0.00 | 41 | 1021.4 |
| 20260906064050 | 71 | 0 | 0.0 | 8.0 | 0.00 | 0.00 | 0.00 | 41 | 1021.5 |
| 20260906063546 | 71 | 0 | 1.0 | 8.0 | 0.00 | 0.00 | 0.00 | 41 | 1021.6 |
| 20260906063102 | 71 | 345 | 1.0 | 4.0 | 0.00 | 0.00 | 0.00 | 41 | 1021.7 |
| 20260906062546 | 72 | 0 | 0.0 | 0.0 | 0.00 | 0.00 | 0.00 | 41 | 1021.8 |
| 20260906062048 | 72 | 0 | 0.0 | 0.0 | 0.00 | 0.00 | 0.00 | 40 | 1021.8 |
| 20260906061558 | 73 | 0 | 0.0 | 0.0 | 0.00 | 0.00 | 0.00 | 39 | 1021.9 |
| 20260906061046 | 73 | 0 | 0.0 | 0.0 | 0.00 | 0.00 | 0.00 | 39 | 1022.1 |
| 20260906060546 | 74 | 0 | 0.0 | 3.0 | 0.00 | 0.00 | 0.00 | 38 | 1022.1 |
| 20260906060105 | 74 | 0 | 0.0 | 3.0 | 0.00 | 0.00 | 0.00 | 38 | 1022.1 |
| 20260906055547 | 74 | 345 | 0.0 | 8.0 | 0.00 | 0.00 | 0.00 | 37 | 1022.1 |
| 20260906055046 | 74 | 0 | 1.0 | 8.0 | 0.00 | 0.00 | 0.00 | 37 | 1021.9 |
| 20260906054556 | 75 | 0 | 0.0 | 0.0 | 0.00 | 0.00 | 0.00 | 37 | 1021.9 |
| 20260906054047 | 75 | 0 | 0.0 | 0.0 | 0.00 | 0.00 | 0.00 | 37 | 1021.7 |
| 20260906053546 | 75 | 0 | 0.0 | 0.0 | 0.00 | 0.00 | 0.00 | 36 | 1021.7 |
| 20260906053104 | 75 | 0 | 0.0 | 0.0 | 0.00 | 0.00 | 0.00 | 35 | 1021.7 |
| 20260906052548 | 75 | 0 | 0.0 | 0.0 | 0.00 | 0.00 | 0.00 | 35 | 1021.5 |
| 20260906052047 | 75 | 0 | 0.0 | 0.0 | 0.00 | 0.00 | 0.00 | 35 | 1021.5 |
| 20260906051556 | 75 | 0 | 0.0 | 0.0 | 0.00 | 0.00 | 0.00 | 35 | 1021.5 |
| 20260906051050 | 75 | 0 | 0.0 | 0.0 | 0.00 | 0.00 | 0.00 | 35 | 1021.5 |
| 20260906050548 | 75 | 0 | 0.0 | 0.0 | 0.00 | 0.00 | 0.00 | 35 | 1021.4 |
| 20260906050056 | 75 | 0 | 0.0 | 0.0 | 0.00 | 0.00 | 0.00 | 35 | 1021.5 |
| 20260906045548 | 75 | 0 | 0.0 | 0.0 | 0.00 | 0.00 | 0.00 | 35 | 1021.4 |
| 20260906045046 | 75 | 0 | 0.0 | 0.0 | 0.00 | 0.00 | 0.00 | 37 | 1021.4 |
| 20260906044557 | 75 | 0 | 0.0 | 8.0 | 0.00 | 0.00 | 0.00 | 36 | 1021.4 |
| 20260906044047 | 75 | 0 | 0.0 | 8.0 | 0.00 | 0.00 | 0.00 | 36 | 1021.4 |
| 20260906043547 | 75 | 352 | 2.0 | 6.0 | 0.00 | 0.00 | 0.00 | 38 | 1021.5 |
| 20260906043100 | 76 | 0 | 2.0 | 6.0 | 0.00 | 0.00 | 0.00 | 38 | 1021.5 |
| 20260906042547 | 76 | 360 | 3.0 | 6.0 | 0.00 | 0.00 | 0.00 | 34 | 1021.4 |
| 20260906042046 | 76 | 360 | 2.0 | 6.0 | 0.00 | 0.00 | 0.00 | 33 | 1021.2 |
| 20260906041603 | 76 | 360 | 1.0 | 5.0 | 0.00 | 0.00 | 0.00 | 33 | 1021.2 |
| 20260906041046 | 76 | 0 | 0.0 | 0.0 | 0.00 | 0.00 | 0.00 | 32 | 1021.1 |
| 20260906040550 | 76 | 0 | 0.0 | 0.0 | 0.00 | 0.00 | 0.00 | 32 | 1021.0 |
| 20260906040058 | 77 | 0 | 0.0 | 0.0 | 0.00 | 0.00 | 0.00 | 31 | 1020.9 |
| 20260906035546 | 77 | 0 | 0.0 | 0.0 | 0.00 | 0.00 | 0.00 | 31 | 1020.9 |
| 20260906035047 | 78 | 0 | 0.0 | 4.0 | 0.00 | 0.00 | 0.00 | 31 | 1020.8 |
| 20260906034556 | 78 | 0 | 0.0 | 4.0 | 0.00 | 0.00 | 0.00 | 30 | 1020.8 |
| 20260906034046 | 78 | 360 | 0.0 | 4.0 | 0.00 | 0.00 | 0.00 | 30 | 1020.7 |
| 20260906033549 | 79 | 0 | 0.0 | 5.0 | 0.00 | 0.00 | 0.00 | 29 | 1020.5 |
| 20260906033111 | 79 | 352 | 0.0 | 5.0 | 0.00 | 0.00 | 0.00 | 29 | 1020.4 |
| 20260906032550 | 79 | 360 | 0.0 | 9.0 | 0.00 | 0.00 | 0.00 | 29 | 1020.5 |
| 20260906032050 | 79 | 0 | 3.0 | 11.0 | 0.00 | 0.00 | 0.00 | 29 | 1020.4 |
| 20260906031600 | 79 | 360 | 2.0 | 11.0 | 0.00 | 0.00 | 0.00 | 29 | 1020.3 |
| 20260906031053 | 79 | 344 | 3.0 | 10.0 | 0.00 | 0.00 | 0.00 | 29 | 1020.3 |
| 20260906030549 | 78 | 351 | 1.0 | 10.0 | 0.00 | 0.00 | 0.00 | 29 | 1020.2 |
| 20260906025549 | 78 | 5 | 4.0 | 11.0 | 0.00 | 0.00 | 0.00 | 30 | 1020.1 |
| 20260906025050 | 78 | 42 | 1.0 | 6.0 | 0.00 | 0.00 | 0.00 | 30 | 1020.1 |
| 20260906024603 | 78 | 0 | 0.0 | 6.0 | 0.00 | 0.00 | 0.00 | 30 | 1020.1 |
| 20260906024049 | 78 | 0 | 1.0 | 10.0 | 0.00 | 0.00 | 0.00 | 30 | 1020.0 |
| 20260906023551 | 78 | 0 | 0.0 | 10.0 | 0.00 | 0.00 | 0.00 | 30 | 1020.1 |
| 20260906023103 | 78 | 0 | 0.0 | 13.0 | 0.00 | 0.00 | 0.00 | 30 | 1020.1 |
| 20260906022550 | 78 | 360 | 3.0 | 13.0 | 0.00 | 0.00 | 0.00 | 30 | 1020.0 |
| 20260906022052 | 78 | 324 | 1.0 | 18.0 | 0.00 | 0.00 | 0.00 | 31 | 1019.9 |
| 20260906021616 | 78 | 341 | 3.0 | 18.0 | 0.00 | 0.00 | 0.00 | 31 | 1019.9 |
| 20260906021049 | 78 | 352 | 8.0 | 19.0 | 0.00 | 0.00 | 0.00 | 31 | 1019.8 |
| 20260906020550 | 78 | 19 | 9.0 | 19.0 | 0.00 | 0.00 | 0.00 | 32 | 1019.6 |
| 20260906020108 | 77 | 5 | 10.0 | 18.0 | 0.00 | 0.00 | 0.00 | 32 | 1019.6 |
| 20260906015549 | 77 | 5 | 7.0 | 14.0 | 0.00 | 0.00 | 0.00 | 32 | 1019.7 |
| 20260906015049 | 78 | 10 | 8.0 | 14.0 | 0.00 | 0.00 | 0.00 | 32 | 1020.0 |
| 20260906014603 | 78 | 352 | 7.0 | 14.0 | 0.00 | 0.00 | 0.00 | 31 | 1020.0 |
| 20260906014050 | 78 | 352 | 8.0 | 15.0 | 0.00 | 0.00 | 0.00 | 31 | 1020.0 |
| 20260906013554 | 78 | 5 | 7.0 | 15.0 | 0.00 | 0.00 | 0.00 | 31 | 1020.0 |
| 20260906013111 | 78 | 352 | 9.0 | 15.0 | 0.00 | 0.00 | 0.00 | 30 | 1019.9 |
| 20260906012552 | 78 | 352 | 7.0 | 12.0 | 0.00 | 0.00 | 0.00 | 30 | 1019.8 |
| 20260906012049 | 78 | 5 | 7.0 | 13.0 | 0.00 | 0.00 | 0.00 | 30 | 1019.8 |
| 20260906011610 | 79 | 352 | 8.0 | 14.0 | 0.00 | 0.00 | 0.00 | 30 | 1019.9 |
| 20260906011052 | 79 | 11 | 9.0 | 15.0 | 0.00 | 0.00 | 0.00 | 30 | 1019.9 |
| 20260906010549 | 79 | 28 | 7.0 | 15.0 | 0.00 | 0.00 | 0.00 | 30 | 1020.1 |
| 20260906010107 | 79 | 14 | 8.0 | 15.0 | 0.00 | 0.00 | 0.00 | 30 | 1020.2 |
| 20260906005549 | 79 | 360 | 6.0 | 18.0 | 0.00 | 0.00 | 0.00 | 30 | 1020.2 |
| 20260906005050 | 79 | 352 | 8.0 | 18.0 | 0.00 | 0.00 | 0.00 | 30 | 1020.4 |
| 20260906004610 | 79 | 19 | 9.0 | 18.0 | 0.00 | 0.00 | 0.00 | 29 | 1020.4 |
| 20260906004050 | 80 | 352 | 5.0 | 12.0 | 0.00 | 0.00 | 0.00 | 29 | 1020.6 |
| 20260906003550 | 80 | 24 | 4.0 | 8.0 | 0.00 | 0.00 | 0.00 | 29 | 1020.7 |
| 20260906003106 | 80 | 28 | 1.0 | 11.0 | 0.00 | 0.00 | 0.00 | 28 | 1020.6 |
| 20260906002919 | 80 | 28 | 3.0 | 16.0 | 0.00 | 0.00 | 0.00 | 29 | 1020.3 |
| 20260906002047 | 81 | 27 | 7.0 | 17.0 | 0.00 | 0.00 | 0.00 | 29 | 1020.2 |
| 20260906001607 | 81 | 352 | 8.0 | 17.0 | 0.00 | 0.00 | 0.00 | 27 | 1020.6 |
| 20260906001046 | 82 | 306 | 3.0 | 12.0 | 0.00 | 0.00 | 0.00 | 26 | 1020.7 |
| 20260906000546 | 82 | 0 | 0.0 | 5.0 | 0.00 | 0.00 | 0.00 | 25 | 1020.6 |
| 20260906000106 | 82 | 0 | 2.0 | 8.0 | 0.00 | 0.00 | 0.00 | 25 | 1020.3 |
| 20260905235548 | 82 | 0 | 2.0 | 8.0 | 0.00 | 0.00 | 0.00 | 25 | 1020.2 |
| 20260905235046 | 83 | 24 | 2.0 | 6.0 | 0.00 | 0.00 | 0.00 | 24 | 1020.1 |
| 20260905234559 | 83 | 25 | 2.0 | 9.0 | 0.00 | 0.00 | 0.00 | 24 | 1020.2 |
| 20260905234046 | 83 | 24 | 3.0 | 9.0 | 0.00 | 0.00 | 0.00 | 24 | 1020.2 |
| 20260905233546 | 84 | 0 | 0.0 | 5.0 | 0.00 | 0.00 | 0.00 | 24 | 1020.2 |
| 20260905233059 | 83 | 23 | 0.0 | 6.0 | 0.00 | 0.00 | 0.00 | 24 | 1020.2 |
| 20260905232548 | 83 | 23 | 2.0 | 6.0 | 0.00 | 0.00 | 0.00 | 24 | 1020.1 |
| 20260905232047 | 83 | 22 | 1.0 | 6.0 | 0.00 | 0.00 | 0.00 | 25 | 1020.2 |
| 20260905231603 | 82 | 0 | 2.0 | 6.0 | 0.00 | 0.00 | 0.00 | 25 | 1020.2 |
| 20260905231046 | 82 | 22 | 1.0 | 8.0 | 0.00 | 0.00 | 0.00 | 25 | 1020.2 |
| 20260905230546 | 82 | 22 | 1.0 | 12.0 | 0.00 | 0.00 | 0.00 | 26 | 1020.2 |
| 20260905230059 | 82 | 17 | 1.0 | 18.0 | 0.00 | 0.00 | 0.00 | 26 | 1019.8 |
| 20260905225549 | 82 | 19 | 5.0 | 22.0 | 0.00 | 0.00 | 0.00 | 25 | 1019.8 |
| 20260905225049 | 83 | 13 | 9.0 | 22.0 | 0.00 | 0.00 | 0.00 | 25 | 1020.0 |
| 20260905224600 | 85 | 27 | 5.0 | 15.0 | 0.00 | 0.00 | 0.00 | 23 | 1019.9 |
| 20260905224050 | 86 | 337 | 6.0 | 15.0 | 0.00 | 0.00 | 0.00 | 21 | 1019.8 |
| 20260905223552 | 87 | 161 | 0.0 | 0.0 | 0.00 | 0.00 | 0.00 | 20 | 1019.8 |
| 20260905223101 | 88 | 0 | 0.0 | 4.0 | 0.00 | 0.00 | 0.00 | 20 | 1019.8 |
| 20260905222549 | 88 | 0 | 0.0 | 6.0 | 0.00 | 0.00 | 0.00 | 19 | 1019.7 |
| 20260905222049 | 88 | 161 | 1.0 | 6.0 | 0.00 | 0.00 | 0.00 | 19 | 1019.6 |
| 20260905221604 | 88 | 0 | 0.0 | 1.0 | 0.00 | 0.00 | 0.00 | 19 | 1019.5 |
| 20260905221050 | 89 | 161 | 0.0 | 2.0 | 0.00 | 0.00 | 0.00 | 19 | 1019.5 |